www.pogodaiklimat.ru
ПОГОДА в Кортленде
Время
и дата
02:35 23.05
02:55 23.05
03:15 23.05
03:35 23.05
03:55 23.05
04:15 23.05
04:35 23.05
04:55 23.05
05:15 23.05
05:35 23.05
05:55 23.05
06:15 23.05
06:35 23.05
06:55 23.05
07:15 23.05
07:35 23.05
07:55 23.05
08:15 23.05
08:35 23.05
08:55 23.05
09:15 23.05
09:35 23.05
09:55 23.05
10:15 23.05
10:35 23.05
10:55 23.05
11:15 23.05
11:35 23.05
11:55 23.05
12:15 23.05
12:35 23.05
12:55 23.05
13:15 23.05
13:35 23.05
13:55 23.05
14:15 23.05
14:35 23.05
14:55 23.05
15:15 23.05
15:35 23.05
15:55 23.05
16:15 23.05
16:35 23.05
16:55 23.05
17:15 23.05
17:35 23.05
17:55 23.05
18:15 23.05
Ветер
(напр.,м/с)
Видим. Явления Облачность Т
(С)
Тd
(С)
f
(%)
Тe
(С)
Тes
(С)
Комфортность P
(гПа)
Po
(гПа)
Тmin
(С)
Tmax
(С)
R
(мм)
R24
(мм)
S
(см)
СЗ 1 16 км 5/5 720 м +8.0 +7.0 93 +6 +6 980.4
СЗ 1 16 км ясно +8.0 +6.0 87 +6 +6 980.4
штиль 0 16 км ясно +8.0 +6.0 87 +7 +7 980.7
штиль 0 16 км 5/5 360 м +7.0 +6.0 93 +6 +6 980.7
штиль 0 16 км 8/8 360 м +7.0 +6.0 93 +6 +6 981.0
штиль 0 16 км 10/10 360 м +7.0 +6.0 93 +6 +6 981.0
штиль 0 16 км 10/10 360 м +7.0 +6.0 93 +6 +6 981.0
СЗ 1 16 км 10/10 360 м +8.0 +6.0 87 +6 +6 981.0
СВ 1 16 км 5/5 300 м +8.0 +6.0 87 +6 +6 981.3
штиль 0 16 км 8/8 360 м +8.0 +6.0 87 +7 +7 981.3
штиль 0 16 км 10/10 360 м +8.0 +6.0 87 +7 +7 981.7
штиль 0 16 км 10/10 300 м +8.0 +6.0 87 +7 +7 982.0
штиль 0 16 км 10/10 300 м +9.0 +7.0 87 +8 +8 982.0
С 1 16 км 10/10 360 м +9.0 +7.0 87 +7 +7 981.7
С 1 16 км 10/10 360 м +10.0 +7.0 82 +8 +8 982.0
СВ 1 16 км 10/10 360 м +10.0 +7.0 82 +9 +9 982.0
СЗ 1 16 км 10/10 420 м +10.0 +7.0 82 +9 +9 982.3
В 1 16 км 10/10 420 м +11.0 +7.0 76 +10 +10 982.3
штиль 0 16 км 8/8 540 м +11.0 +7.0 76 +10 +12 982.3
СВ 1 16 км 5/5 570 м +12.0 +7.0 71 +10 +14 982.0
СВ 1 16 км 8/8 720 м +13.0 +7.0 67 +12 +14 982.0
С 1 16 км 10/10 810 м +13.0 +6.0 62 +12 +12 982.0
СВ 2 16 км 10/10 930 м +13.0 +7.0 67 +11 +11 982.0
СВ 2 16 км 8/8 930 м +12.0 +6.0 67 +10 +12 982.0
С 1 16 км 5/5 930 м +13.0 +7.0 67 +12 +20 982.0
С 1 16 км 5/5 990 м +14.0 +7.0 63 +14 +21 982.0
С 1 16 км 10/10 1290 м +13.0 +6.0 62 +12 +12 982.3
С 1 16 км 8/8 1320 м +15.0 +6.0 55 +14 +17 982.0
штиль 0 16 км 10/10 1470 м +14.0 +6.0 59 +14 +14 982.0
СВ 1 16 км 10/10 1470 м +15.0 +6.0 55 +15 +15 982.0
СВ 1 16 км 5/5 1650 м +15.0 +6.0 55 +14 +22 982.0
СВ 2 16 км 5/5 1260 м +15.0 +5.0 51 +14 +21 981.7
С 1 16 км 10/10 1440 м +15.0 +5.0 51 +14 +14 981.3
СЗ 1 16 км 8/8 1470 м +15.0 +5.0 51 +15 +19 981.3
СЗ 1 16 км 8/8 1350 м +16.0 +5.0 48 +16 +19 981.0
СВ 1 16 км 10/10 1290 м +15.0 +6.0 55 +14 +14 981.0
С 1 16 км 10/10 1260 м +15.0 +6.0 55 +14 +14 981.0
С 1 16 км 10/10 1230 м +15.0 +6.0 55 +15 +15 981.0
штиль 0 16 км 10/10 1230 м +15.0 +6.0 55 +15 +15 981.0
С 1 16 км 10/10 1320 м +15.0 +6.0 55 +15 +15 981.0
С 1 16 км 8/8 1500 м +15.0 +6.0 55 +15 +17 981.0
С 1 16 км 5/5 1170 м +15.0 +6.0 55 +15 +19 981.0
СВ 1 16 км 8/8 1170 м +15.0 +6.0 55 +14 +16 981.0
штиль 0 16 км 10/10 1230 м +15.0 +7.0 59 +15 +15 981.0
штиль 0 16 км 8/8 1230 м +15.0 +6.0 55 +15 +16 981.0
СЗ 1 16 км 5/5 1500 м +14.0 +6.0 59 +14 +16 981.0
СЗ 1 16 км ясно +14.0 +6.0 59 +14 +18 981.0
штиль 0 16 км ясно +13.0 +6.0 62 +13 +15 981.0
Местоположение метеостанции Cortland County-Chase Field: широта 42.5926 долгота -76.2149 высота над уровнем моря 365 м.
В архиве по умолчанию представлена погода в Кортленде за последние 1-2 суток. Обновление информации о фактической погоде в базе происходит ежечасно! Архивные данные за месяц целиком и за предыдущие месяцы Вы можете получить, выбрав интересующий диапазон дат из раскрывающегося списка и нажав кнопку "Ввод!".
Внимание! Архив погоды МЕТАР в базе сайта по станциям, не включенным в климатический монитор, хранится не более 60 дней. Нет смысла пытаться выбрать более раннюю дату.
*Определитесь, кто Вы:
Внимание! Время в таблицах - местное (без учета летнего времени). Для получения всемирного времени необходимо вычесть поправку, которая равна -5 ч.
Смотрите также архив погоды в соседних городах и на ближайших метеорологических станциях:
Партнеры нашего сайта:      
Пояснения к столбцам:
  • Ветер - указаны скорость ветра в м/с - средняя за 10 мин, порывы в срок и между сроками (в фигурных скобках) и направление, откуда дует ветер: С - северный,
  • СВ - северо-восточный, В - восточный, ЮВ - юго-восточный, Ю - южный, ЮЗ - юго-западный, З - западный, СЗ - северо-западный.
  • Видимость - горизонтальная дальность видимости в метрах или километрах. При видимости от 1 до 10 км при отсутствии осадков обычно наблюдается дымка, при ухудшении видимости до 1 км и менее - туман. В сухую погоду видимость может ухудшаться дымом, пылью или мглою.
  • Явления - указаны атмосферные явления, наблюдавшиеся в срок или в последний час перед сроком; фигурными скобками обозначены явления, наблюдавшиеся между сроками (за 1-3 часа до срока); квадратными скобками обозначены град или гололедные отложения с указанием их диаметра в мм.
  • Облачность - указаны через наклонную черту общая и нижняя облачность в баллах и высота нижней границы облаков в метрах; квадратными скобками обозначены формы облаков: Ci - перистые, Cs - перисто-слоистые, Cc - перисто-кучевые, Ac - высококучевые, As - высокослоистые, Sc - слоисто-кучевые, Ns - слоисто-дождевые, Cu - кучевые, Cb - кучево-дождевые. Подробнее классификацию облаков см. в Атласе облаков (PDF).
  • T - Температура воздуха - температура, измеренная на высоте 2 м над землей.
  • Td - Температура точки росы - температура, при понижении до которой содержащийся в воздухе водяной пар достигнет насыщения.
  • f - Относительная влажность воздуха - влажноcть воздуха, измеренная на высоте 2 м над землей.
  • Te - Эффективная температура - температура, которую ощущает одетый по сезону человек в тени. Характеристика душности погоды. При расчете учитывается влияние влажности воздуха и скорости ветра на теплоощущения человека.
  • Tes - Эффективная температура на солнце - температура, которую ощущает человек, с поправкой на солнечный нагрев. Характеристика знойности погоды. Зависит от высоты солнца над горизонтом, облачности и скорости ветра. Ночью, в пасмурную погоду, а также при ветре 12 м/с и более поправка равна нулю.
  • P - Атмосферное давление - приведенное к уровню моря атмосферное давление.
  • Po - Атмосферное давление - измеренное на уровне метеостанции атмосферное давление.
  • Tmin - Минимальная температура - минимум температуры воздуха на высоте 2 м над землей.
  • Tmax - Максимальная температура - максимум температуры воздуха на высоте 2 м над землей.
  • R - Количество осадков - Количество выпавших осадков за период времени, мм. При наведении курсора мыши на число - период времени, за который выпало указанное количество осадков.
  • R24 - Количество осадков - Количество выпавших осадков за 24 часа, мм.
  • S - Снежный покров - Высота снежного покрова, см. При наведении курсора мыши на число - состояние снежного покрова и степень покрытия местности в баллах.